Regional Weather Roundup
Issued by NWS Sioux Falls, SD

Home | Current Version | Previous Version | Text Only | Print | Product List | Glossary Off
Versions: 1 2 3 4 5 6 7 8 9 10 11 12 13 14 15 16 17 18 19 20 21 22 23 24 25 26 27 28 29 30 31 32 33 34 35 36 37 38 39 40 41 42 43 44 45 46 47 48 49 50

000
ASUS43 KFSD 230710
RWRFSD

WEATHER ROUNDUP FOR SE SOUTH DAKOTA/SW MINNESOTA/NW IOWA
NATIONAL WEATHER SERVICE SIOUX FALLS SD
200 AM CDT SAT AUG 23 2014

NOTE: "FAIR" INDICATES FEW OR NO CLOUDS BELOW 12,000 FEET WITH NO
SIGNIFICANT WEATHER AND OR OBSTRUCTIONS TO VISIBILITY.


SDZ038>040-050-052>070-230800-
SOUTHEAST SOUTH DAKOTA

CITY           SKY/WX    TMP DP  RH WIND       PRES   REMARKS
CHAMBERLAIN    LGT RAIN  71  69  95 E6        29.93F
HURON          CLOUDY    72  68  87 E13       29.94F
MADISON        FAIR      68  68 100 NE10      29.99S
MITCHELL       CLOUDY    73  70  90 E9        29.93F
SIOUX FALLS    CLOUDY    72  68  87 E7        29.96F
WINNER         LGT RAIN  72  69  90 NE6       29.93F
YANKTON        CLOUDY    73  72  94 SE7       29.94S
$$

MNZ071-072-080-081-089-090-097-098-230800-
SOUTHWEST MINNESOTA

CITY           SKY/WX    TMP DP  RH WIND       PRES   REMARKS
FAIRMONT       CLOUDY    63  63 100 E3        29.99S
JACKSON        CLOUDY    68  64  88 E5        30.00F
LUVERNE        CLOUDY    72  68  88 E3        29.98F
MARSHALL       CLOUDY    72  68  88 E7        29.99S
MONTEVIDEO     MOCLDY    72  70  94 SE3       30.00S
PIPESTONE      CLOUDY    72  68  88 E5        30.00S
REDWOOD FALLS  CLOUDY    71  69  93 E6        29.99S
TRACY          CLOUDY    71  69  94 E5        30.00S
WINDOM         CLOUDY    70  66  88 E5        30.01R
WORTHINGTON      N/A     70  68  94 E6        30.01S
$$

IAZ001>003-012>014-020>022-031-032-NEZ013-014-SDZ071-230800-
NORTHWEST IOWA

CITY           SKY/WX    TMP DP  RH WIND       PRES   REMARKS
CHEROKEE       CLOUDY    73  72  95 NE7       29.96S
DENISON        CLOUDY    70  70 100 N5        29.94S
ESTHERVILLE    CLOUDY    70  69  97 E7        29.98F FOG
LE MARS        CLOUDY    75  72  88 E10       29.95S
ORANGE CITY    CLOUDY    75  68  78 E9        29.96F
SHELDON        CLOUDY    72  70  94 E9        29.95F
SIOUX CITY     CLOUDY    75  72  90 SE5       29.94S
SPENCER        CLOUDY    73  69  87 E10       29.98F
STORM LAKE     CLOUDY    73  73 100 NE12      29.97S
$$

ABBREVIATIONS USED IN REMARKS
   TC - TEMPERATURE IN CELSIUS
  WCI - WIND CHILL INDEX
   HX - HEAT INDEX
  VSB - VISIBILITY




USA.gov is the U.S. government's official web portal to all federal, state and local government web resources and services.